Location: �clusier
(49.9361°N, 2.7869°E)
Time: 09:04:38
(UTC+00:00)

NOSS 0 Rocket - Pass Details

Date: 16 June 2021
Orbit: 934 x 956 km, 70.0° (Epoch: 02 August)

Event Time Altitude Azimuth Distance (km) Brightness Sun altitude
Exits shadow 23:45:22 16° 220° (SW) 2,271 5.5 -16.7°
Maximum altitude 23:50:28 72° 303° (WNW) 1,002 4.1 -16.7°
Drops below altitude 10° 23:56:43 10° 28° (NNE) 2,691 7.3 -16.7°
Sets 23:59:18 0° 31° (NNE) 3,642 8.1 -16.7°
